Location: Cincinnati Observatory Center
(39.1389°N, 84.4225°W)
Time: 09:56:59
(UTC-04:00)

Daily predictions for brighter satellites

Satellite Brightness Start Highest point End
(mag) Time Altitude Azimuth Time Altitude Azimuth Time Altitude Azimuth
OAO 2 Rocket 3.7 20:33:36 10° WSW 20:38:23 49° S 20:43:16 10° E
Meteor 1-29 3.1 20:38:02 10° N 20:41:31 84° W 20:44:58 10° SSW
Cosmos 2297 Rocket 2.6 20:38:13 10° N 20:43:38 45° ENE 20:49:02 10° SE
Cosmos 2082 3.8 20:38:55 10° NNW 20:44:29 60° ENE 20:50:01 10° SE
Meteor 2-16 Rocket 4.4 20:39:45 10° S 20:45:48 76° E 20:51:52 10° N
Meteor 1-5 Rocket 4.1 20:41:06 10° S 20:46:26 81° E 20:51:56 10° NNE
ALOS 2.5 20:43:41 10° SSE 20:48:12 51° ENE 20:52:44 10° N
ATLAS 2A CENTAUR R/B 4.0 20:49:00 10° WSW 20:50:40 11° SW 20:51:56 10° SSW
Cosmos 1346 Rocket 2.7 20:46:50 10° N 20:50:48 75° E 20:54:47 10° SSE
Helios 1A 3.6 20:49:32 10° S 20:53:39 60° WSW 20:57:49 10° NNW
USA 186 2.4 20:52:25 10° SE 20:55:11 32° ENE 20:57:49 10° N
OTV 4 1.6 20:53:19 10° W 20:56:01 32° SSW 20:58:28 12° SE
NOSS 3-4 (A) 4.1 20:50:46 10° NW 20:57:50 75° WSW 21:05:17 10° SSE
NOSS 3-4 (C) 4.1 20:50:53 10° NW 20:57:57 76° WSW 21:05:25 10° SSE
SL-24 R/B - RUBIN 2 4.3 20:57:10 10° SSW 21:02:53 70° ESE 21:09:19 10° NE
Cosmos 1461 3.1 20:59:09 10° NW 21:03:10 67° WSW 21:07:03 10° SSE
Cosmos 1605 Rocket 4.0 21:05:29 10° S 21:11:50 86° E 21:18:07 10° N
CZ-4B DEB 3.5 21:09:28 10° S 21:12:41 56° W 21:15:57 10° NNW
Cosmos 1743 4.0 21:13:06 18° ESE 21:14:31 22° E 21:17:33 10° NE
BREEZE-M DEB (TANK) 4.5 20:54:48 10° SW 21:16:39 72° SSE 21:21:59 10° ENE
Tiangong 1 1.8 21:13:54 10° WNW 21:16:55 45° N 21:18:49 19° ENE
RESURS DK-1 3.4 21:14:05 10° N 21:17:43 29° ENE 21:19:38 20° ESE
Cosmos 1697 Rocket 2.7 21:12:29 10° S 21:17:59 56° ESE 21:23:31 10° NNE
Cosmos 2100 Rocket 4.3 21:15:45 10° SSE 21:21:38 43° E 21:27:27 10° NNE
H-2A R/B 3.6 21:20:45 16° E 21:21:41 18° ENE 21:24:27 10° NNE
Iridium 4 Rocket 3.2 21:19:20 10° N 21:24:17 64° E 21:28:46 10° SSE
BREEZE-M DEB (TANK) 4.3 21:20:59 10° WSW 21:24:56 80° NNW 21:39:28 10° ENE
Cosmos 1626 Rocket 3.5 21:21:12 10° N 21:25:36 87° ENE 21:29:57 10° S
Envisat 3.8 21:23:25 20° ESE 21:26:08 33° ENE 21:30:39 10° N
YAOGAN 11 4.5 21:24:13 19° SE 21:27:10 46° ENE 21:31:26 10° N
Cosmos 2298 Rocket 4.0 21:22:25 10° NNW 21:27:44 68° ENE 21:31:50 17° SSE
Cosmos 1937 Rocket 3.9 21:24:04 10° N 21:29:08 45° ENE 21:32:04 23° SE
Cosmos 2084 3.3 21:26:46 10° NNW 21:30:50 73° NE 21:33:09 26° SE
Cosmos 2061 Rocket 4.2 21:25:47 10° SSE 21:31:46 47° E 21:37:43 10° NNE
Cosmos 1602 Rocket 3.8 21:30:56 10° NNW 21:35:23 73° W 21:39:46 10° S
Cosmos 220 Rocket 4.4 21:35:29 10° NNW 21:39:38 59° WSW 21:43:08 14° S
H-2A R/B 3.8 21:36:23 10° S 21:40:07 46° W 21:43:55 10° NNW
Cosmos 1980 Rocket 2.3 21:36:01 10° S 21:41:30 53° ESE 21:47:02 10° NNE
Lacrosse 5 2.0 21:37:35 10° NW 21:42:38 63° NE 21:44:53 32° ESE
deb Chang Zheng 4 4.2 21:40:06 10° NNE 21:44:09 33° E 21:44:26 33° ESE
Cosmos 1975 4.1 21:45:11 10° SSW 21:49:05 43° W 21:53:01 10° N
SPOT 5 3.7 21:49:21 31° E 21:50:23 34° ENE 21:54:43 10° N
Cosmos 1459 Rocket 3.8 21:44:44 10° S 21:50:44 70° E 21:56:48 10° NNE
ERS-1 Rocket 2.9 21:48:21 25° SSE 21:51:19 76° ENE 21:56:21 10° N
Cosmos 2150 Rocket 4.0 21:48:15 10° NNW 21:53:25 82° WSW 21:56:30 25° SSE
Lacrosse 5 rocket 2.9 21:53:27 10° WNW 21:56:28 24° SW 21:57:58 18° SSW
BREEZE-M TANK 3.1 21:46:26 10° WNW 21:56:44 74° NNE 21:58:04 41° E
Cosmos 1666 4.4 22:00:57 21° NE 22:00:57 21° NE 22:02:34 10° NNE
Cosmos 2058 Rocket 3.8 22:03:45 36° ENE 22:03:45 36° ENE 22:07:15 10° NNE
Cosmos 2098 Rocket 4.3 22:00:54 30° SE 22:03:47 47° E 22:09:22 10° NNE
SJ-11-01 4.4 22:01:22 25° S 22:04:02 72° WSW 22:08:44 10° NNW
Cosmos 1763 Rocket 3.3 21:58:58 10° S 22:04:02 68° ESE 22:09:05 10° NNE
Cosmos 1606 Rocket 3.4 22:06:33 52° SSE 22:07:30 71° E 22:11:55 10° NNE
CZ-4 DEB 3.6 22:07:23 42° SW 22:07:48 45° W 22:10:52 10° NNW
Cosmos 2263 Rocket 3.9 22:05:00 10° NNE 22:08:34 17° NE 22:09:09 17° ENE
Cosmos 1898 Rocket 4.1 22:04:19 10° NNW 22:09:28 54° WSW 22:12:34 23° S
DELTA 2 R/B (1) 4.0 22:06:32 10° W 22:11:51 47° SSW 22:13:06 40° SSE
Cosmos 2227 Rocket 4.3 22:07:56 10° NW 22:12:14 23° W 22:16:30 10° SSW
Terra 4.1 22:15:54 12° NE 22:15:54 12° NE 22:16:50 10° NE
Cosmos 2322 Rocket 3.2 22:16:56 29° ENE 22:16:56 29° ENE 22:20:09 10° NE
YAOGAN 6 3.9 22:16:13 31° NNE 22:16:13 31° NNE 22:18:32 10° N
Cosmos 1125 Rocket 4.3 22:10:55 10° N 22:15:40 34° ENE 22:15:41 34° ENE
Cosmos 1340 2.8 22:16:50 10° NNW 22:20:21 73° NW 22:20:21 73° NW
OAO 2 Rocket 3.6 22:18:01 10° W 22:22:50 50° S 22:22:50 50° S
Cosmos 1939 Rocket 3.7 22:25:01 41° SW 22:25:55 49° W 22:30:00 10° NNW
Meteor 1-21 4.3 22:21:19 10° N 22:27:08 83° W 22:29:02 45° S
Cosmos 2297 Rocket 4.2 22:22:56 10° NW 22:27:20 24° W 22:31:44 10° SSW
Cosmos 841 Rocket 3.4 22:23:27 17° SSW 22:27:29 83° WNW 22:32:43 10° NNE
Meteor 2-9 Rocket 4.0 22:26:59 64° SE 22:27:30 68° E 22:32:52 10° NNE
SL-08 R/B 4.3 22:25:29 36° S 22:28:17 82° E 22:34:28 10° N
Cosmos 1802 Rocket 4.3 22:22:42 10° SSW 22:29:03 69° W 22:35:30 10° N
Cosmos 2360 4.1 22:23:32 10° SSW 22:29:15 87° WNW 22:35:01 10° NNE
Cosmos 1726 Rocket 3.6 22:30:18 72° WSW 22:30:33 75° W 22:34:58 10° N
MetOp-A 4.0 22:33:48 71° SE 22:34:23 84° ENE 22:39:46 10° NNW
Cosmos 2227 4.1 22:30:52 10° NNW 22:36:38 85° WSW 22:37:26 67° S
Cosmos 2016 Rocket 4.2 22:35:00 21° SSW 22:39:12 68° W 22:45:24 10° N
ASTEX 1 3.6 22:40:09 10° N 22:45:09 71° W 22:45:36 66° WSW
Cosmos 1375 Rocket 4.4 22:50:12 62° S 22:51:22 79° ESE 22:57:59 10° NNE
Tiangong 1 4.3 22:50:25 10° WNW 22:50:47 13° WNW 22:50:47 13° WNW
BREEZE-M DEB (TANK) 3.9 22:52:07 10° NW 22:53:27 32° NW 22:53:27 32° NW
RESURS DK-1 4.4 22:52:24 10° NW 22:55:34 22° WSW 22:55:34 22° WSW
H-2A R/B 3.4 22:57:54 34° W 22:57:54 34° W 23:01:14 10° NNW
USA 245 4.4 23:02:14 74° SW 23:02:39 78° WSW 23:09:02 10° NNW
SL-16 R/B 2.6 23:13:10 57° N 23:13:10 57° N 23:17:45 10° NNE
NOAA 11 4.5 23:13:22 64° NW 23:13:22 64° NW 23:18:08 10° NNW
ARGOS 3.6 23:16:23 59° NW 23:16:23 59° NW 23:20:55 10° NNW
Tsikada Rocket 4.4 23:12:25 10° NNW 23:18:42 57° W 23:19:19 55° WSW
Lacrosse 5 4.0 23:21:32 10° WNW 23:24:05 19° WSW 23:24:05 19° WSW
H-2A R/B 3.3 23:27:29 34° N 23:27:29 34° N 23:30:17 10° N
Cosmos 1980 Rocket 4.4 23:21:26 10° WSW 23:25:50 23° NW 23:30:16 10° N
Cosmos 2360 Rocket 4.3 23:30:08 17° NE 23:30:08 17° NE 23:31:22 10° NNE
BREEZE-M DEB (TANK) 4.4 23:26:48 10° WSW 23:37:37 64° NW 23:37:37 64° NW
Terra 3.9 23:54:48 24° NNW 23:54:48 24° NNW 23:56:44 10° NNW
Cosmos 2263 Rocket 3.4 23:47:31 10° NNW 23:50:51 37° NW 23:50:51 37° NW
